Location: Prague
(50.0830°N, 14.4670°E)
Time: 15:36:29
(UTC+02:00)

DOVE 4 - Pass Details

Date: 08 April 2023
Orbit: 584 x 791 km, 97.8° (Epoch: 03 June)

Event Time Altitude Azimuth Distance (km) Brightness Sun altitude
Rises 01:17:33 0° 3° (N) 3,086 ? -32.8°
Reaches altitude 10° 01:20:19 10° 348° (NNW) 2,123 ? -32.8°
Enters shadow 01:22:53 20° 315° (NW) 1,537 ? -32.8°
